KF8ADQ-10 Weather Reports


time (UTC)temp
C
wind
direction
speed
KPH
gust
KPH
rain 1hr
cm
rain 24hr
cm
rain mn
cm
humidity
%
barometer
mb
20260504020006 9 180 0.0 6.4 0.00 0.00 0.00 67 100.7
20260504013007 10 113 0.0 6.4 0.00 0.00 0.00 59 100.7
20260504010006 10 180 0.0 11.3 0.00 0.00 0.00 57 100.7
20260504003006 12 180 0.0 11.3 0.00 0.00 0.00 53 100.7
20260504000006 13 225 0.0 14.5 0.00 0.00 0.00 47 100.7
20260503233010 13 45 0.0 14.5 0.00 0.00 0.00 47 100.7
20260503230016 13 203 0.0 11.3 0.00 0.00 0.00 46 100.7
20260503223006 14 180 0.0 12.9 0.00 0.00 0.00 45 100.7
20260503220006 14 203 0.0 12.9 0.00 0.00 0.00 45 100.7
20260503213006 15 225 0.0 12.9 0.00 0.00 0.00 43 100.8
20260503210006 15 180 0.0 12.9 0.00 0.00 0.00 43 100.7
20260503203006 17 225 0.0 17.7 0.00 0.00 0.00 40 100.8
20260503200006 16 225 0.0 17.7 0.00 0.00 0.00 42 100.8
20260503193006 17 180 0.0 14.5 0.00 0.00 0.00 39 100.8
20260503190006 16 203 0.0 14.5 0.00 0.00 0.00 42 100.9
20260503183006 15 225 0.0 16.1 0.00 0.00 0.00 42 100.9
20260503180006 15 203 0.0 16.1 0.00 0.00 0.00 45 100.9
20260503173007 15 248 0.0 14.5 0.00 0.00 0.00 43 101.0
20260503053007 1 158 0.0 3.2 0.00 0.00 0.00 90 101.1
20260503050009 2 180 0.0 0.0 0.00 0.00 0.00 90 101.1
20260503043006 2 180 0.0 0.0 0.00 0.00 0.00 91 101.1
20260503040006 2 180 0.0 0.0 0.00 0.00 0.00 93 101.1
20260503033007 2 180 0.0 0.0 0.00 0.00 0.00 93 101.1
20260503030006 2 180 0.0 0.0 0.00 0.00 0.00 93 101.1
20260503023007 2 180 0.0 0.0 0.00 0.00 0.00 91 101.2